This demonstration page uses our WeatherBlox Daily Observations layout. Learn more.

Left ArrowRight Arrow

36.17497, -115.13722

Hourly Observations for August 26, 2016

Temp ( °F °C ) Dew Point ( °F °C ) Humidity (%) Winds ( mph kmh ) Pressure ( in mb ) Visibility ( mi km ) Precip ( " mm )
12:35 am 00:35 Clear 84 28.9 43 6.1 24 24 E 13 20 29.68 1005 10 16.0934 0 0
12:53 am 00:53 Clear 83 28.3 44 6.7 25 25 ESE 12 19 29.8 1009 10 16.0934 0 0
1:53 am 01:53 Clear 82 27.8 45 7.2 27 27 E 8 13 29.81 1010 10 16.0934 0 0
2:53 am 02:53 Clear 81 27.2 46 7.8 29 29 E 9 15 29.82 1010 10 16.0934 0 0
3:53 am 03:53 Clear 80 26.7 46 7.8 30 30 ESE 8 13 29.84 1011 10 16.0934 0 0
4:53 am 04:53 Clear 79 26.1 47 8.3 32 32 Calm 29.86 1011 10 16.0934 0 0
5:53 am 05:53 Mostly Clear 79 26.1 49 9.4 35 35 WSW 3 6 29.88 1012 10 16.0934 0 0
6:53 am 06:53 Sunny 78 25.6 50 10 37 37 Calm 29.91 1013 10 16.0934 0 0
7:53 am 07:53 Sunny 80 26.7 50 10 35 35 S 5 7 29.92 1013 10 16.0934 0 0
8:53 am 08:53 Sunny 83 28.3 50 10 32 32 SE 5 7 29.92 1013 10 16.0934 0 0
9:53 am 09:53 Sunny 86 30 50 10 29 29 E 12 19 29.93 1014 10 16.0934 0 0
10:53 am 10:53 Sunny 88 31.1 50 10 27 27 SE 9 15 29.92 1013 10 16.0934 0 0
11:53 am 11:53 Sunny 90 32.2 46 7.8 22 22 VRB 5 7 29.91 1013 10 16.0934 0 0
12:53 pm 12:53 Sunny 93 33.9 45 7.2 19 19 VRB 6 9 29.88 1012 10 16.0934 0 0
1:53 pm 13:53 Sunny 95 35 44 6.7 17 17 SSE 13 20 29.85 1011 10 16.0934 0 0
2:53 pm 14:53 Mostly Sunny 93 33.9 43 6.1 18 18 SW 6 9 29.82 1010 10 16.0934 0 0
3:40 pm 15:40 Mostly Cloudy 88 31 54 12 31 31 N 15 24 29.65 1004 9 14.48406 0 0
3:53 pm 15:53 Mostly Cloudy 92 33.3 50 10 24 24 NE 13 20 29.81 1009 10 16.0934 0 0
4:53 pm 16:53 Sunny 91 32.8 46 7.8 21 21 ENE 8 13 29.81 1010 10 16.0934 0 0
5:53 pm 17:53 Sunny 93 33.9 45 7.2 19 19 ENE 6 9 29.8 1009 10 16.0934 0 0
6:53 pm 18:53 Partly Cloudy 89 31.7 52 11.1 28 28 S 15 24 29.81 1009 10 16.0934 0 0
7:00 pm 19:00 Mostly Sunny 90 32 52 11 27 27 SSW 13 20 29.65 1004 10 16.0934 0 0
7:53 pm 19:53 Clear 86 30 51 10.6 30 30 SW 16 26 29.84 1010 10 16.0934 0 0
8:53 pm 20:53 Clear 86 30 50 10 29 29 SSW 13 20 29.85 1011 10 16.0934 0 0
9:53 pm 21:53 Clear 85 29.4 51 10.6 31 31 WSW 9 15 29.87 1011 10 16.0934 0 0
10:53 pm 22:53 Clear 83 28.3 52 11.1 34 34 ESE 3 6 29.86 1011 10 16.0934 0 0
11:53 pm 23:53 Mostly Cloudy 83 28.3 51 10.6 33 33 SW 15 24 29.88 1012 10 16.0934 0 0

Powered by AerisWeather